Location: Ar Ranvel
(48.3000°N, 4.8833°W)
Time: 07:31:09
(UTC+00:00)

Geosat - Pass Details

Date: 16 June 2021
Orbit: 762 x 766 km, 108.0° (Epoch: 26 July)

Event Time Altitude Azimuth Distance (km) Brightness Sun altitude
Exits shadow 21:15:05 - 141° (SE) 2,397 5.9 -7.2°
Reaches altitude 10° 21:15:20 10° 140° (SE) 2,294 5.8 -7.2°
Maximum altitude 21:20:19 72° 57° (ENE) 808 4.1 -7.8°
Drops below altitude 10° 21:25:20 10° 335° (NNW) 2,311 8.0 -8.3°
Sets 21:27:37 0° 333° (NNW) 3,242 9.2 -8.6°
